Retour au catalogue

COSMOS 2251 DEB

ActifLEO
NORAD 34758·DEBRIS·🇷🇺 Russia

Lancé Jun 16, 1993 depuis Plesetsk Cosmodrome

Loading…

Prochains Passages (prochaines 24 heures)

TLE

FraisSource: Space-Track

Époque: Sep 14, 2026, 07:56 UTC

1 34758U 93036AAC 26257.33100601  .00000411  00000-0  36392-3 0  9996
2 34758  74.1053 215.5997 0387383 275.7685  79.9394 13.58653489866529

Suivez COSMOS 2251 DEB en temps réel avec AllMySat

Download on the App Store